DW9421 Weather Reports


Display with metric or nautical units.
time (UTC)temp
F
wind
direction
speed
MPH
gust
MPH
rain 1hr
in
rain 24hr
in
rain mn
in
humidity
%
barometer
mb
20260505064538 60 360 0.0 2.0 0.00 0.00 0.00 67 1010.6
20260505063038 60 360 0.0 2.0 0.00 0.00 0.00 67 1010.7
20260505061554 60 360 0.0 5.0 0.00 0.00 0.00 66 1010.6
20260505060036 60 360 0.0 1.0 0.00 0.00 0.00 66 1010.7
20260505054543 61 360 0.0 0.0 0.00 0.00 0.00 65 1010.7
20260505053031 61 360 0.0 1.0 0.00 0.00 0.00 64 1010.8
20260505051530 61 360 0.0 0.0 0.00 0.00 0.00 64 1010.9
20260505041522 63 360 0.0 0.0 0.00 0.00 0.00 59 1011.0
20260505040035 63 360 0.0 0.0 0.00 0.00 0.00 58 1010.8
20260505034530 64 360 0.0 0.0 0.00 0.00 0.00 56 1010.8
20260505033019 65 360 0.0 0.0 0.00 0.00 0.00 55 1010.8
20260505031518 65 360 0.0 0.0 0.00 0.00 0.00 54 1010.8
20260505030019 66 360 0.0 0.0 0.00 0.00 0.00 53 1010.8
20260505024517 67 360 0.0 0.0 0.00 0.00 0.00 52 1010.7
20260505023016 67 360 0.0 1.0 0.00 0.00 0.00 52 1010.8
20260505021516 68 360 0.0 2.0 0.00 0.00 0.00 50 1010.7
20260505020015 68 360 1.0 3.0 0.00 0.00 0.00 50 1010.5
20260505014516 68 360 0.0 2.0 0.00 0.00 0.00 50 1010.5
20260505013015 69 360 0.0 4.0 0.00 0.00 0.00 48 1010.3
20260505011514 69 360 0.0 2.0 0.00 0.00 0.00 47 1010.2
20260505010013 69 360 0.0 1.0 0.00 0.00 0.00 46 1010.1
20260505004517 70 360 0.0 2.0 0.00 0.00 0.00 45 1009.9
20260505003013 70 360 0.0 3.0 0.00 0.00 0.00 44 1009.9
20260505001513 71 360 1.0 3.0 0.00 0.00 0.00 43 1009.9
20260505000014 71 360 0.0 3.0 0.00 0.00 0.00 43 1009.8
20260504234512 71 360 0.0 6.0 0.00 0.00 0.00 42 1009.7
20260504233012 71 360 0.0 3.0 0.00 0.00 0.00 41 1009.7
20260504231510 72 360 1.0 7.0 0.00 0.00 0.00 40 1009.6
20260504230010 72 360 1.0 3.0 0.00 0.00 0.00 39 1009.6
20260504224509 72 360 1.0 5.0 0.00 0.00 0.00 38 1009.6
20260504223010 72 360 1.0 8.0 0.00 0.00 0.00 38 1009.7
20260504221509 73 360 3.0 10.0 0.00 0.00 0.00 37 1009.5
20260504220021 73 360 3.0 11.0 0.00 0.00 0.00 37 1009.6
20260504214507 74 360 4.0 13.0 0.00 0.00 0.00 36 1009.5
20260504213008 74 360 3.0 10.0 0.00 0.00 0.00 36 1009.6
20260504211506 74 360 1.0 7.0 0.00 0.00 0.00 35 1009.6
20260504210005 74 360 2.0 7.0 0.00 0.00 0.00 36 1009.6
20260504204503 74 360 1.0 7.0 0.00 0.00 0.00 35 1009.6
20260504203002 74 360 1.0 4.0 0.00 0.00 0.00 36 1009.9
20260504201600 74 360 4.0 11.0 0.00 0.00 0.00 35 1010.0
20260504200058 74 360 2.0 5.0 0.00 0.00 0.00 35 1010.3
20260504194600 74 360 1.0 3.0 0.00 0.00 0.00 35 1010.3
20260504193112 75 360 2.0 9.0 0.00 0.00 0.00 34 1010.6
20260504191553 74 360 2.0 9.0 0.00 0.00 0.00 35 1010.8
20260504190056 74 360 4.0 10.0 0.00 0.00 0.00 34 1011.2
20260504184548 74 360 2.0 7.0 0.00 0.00 0.00 35 1011.4
20260504183056 73 360 2.0 7.0 0.00 0.00 0.00 37 1011.6
20260504181543 72 360 2.0 6.0 0.00 0.00 0.00 36 1011.9
20260504180107 72 360 1.0 5.0 0.00 0.00 0.00 36 1012.1
20260504174539 72 360 2.0 7.0 0.00 0.00 0.00 37 1012.2
20260504173038 71 360 2.0 8.0 0.00 0.00 0.00 38 1012.3
20260504171533 71 360 2.0 9.0 0.00 0.00 0.00 37 1012.6
20260504081513 50 360 0.0 0.0 0.00 0.00 0.00 69 1015.6